Ketchikan, AK

4:26 AM AKDT on August 15, 2018 (GMT -0800)
Ketchikan International

Weather History for PAKT - April, 2018

Change the Weather History Date:

Friday, April 6, 2018

  Actual Average Record
Temperature  
Mean Temperature 42 °F 41 °F  
Max Temperature 46 °F 48 °F 62 °F (1966)
Min Temperature 37 °F 34 °F 26 °F (1997)
Degree Days  
Heating Degree Days 23 24  
Month to date heating degree days 162 147  
Moisture  
Dew Point 36 °F    
Average Humidity 80    
Maximum Humidity 89    
Minimum Humidity 65    
Precipitation  
Precipitation 0.64 in 0.35 in 3.28 in (2007)
Month to date precipitation 1.64 2.07  
Year to date precipitation 28.59 38.89  
Sea Level Pressure  
Sea Level Pressure 29.65 in    
Wind  
Wind Speed 6 mph (SSE)    
Max Wind Speed 18 mph    
Max Gust Speed 25 mph    
Visibility 9 miles    
Events Rain    
T = Trace of Precipitation, MM = Missing Value Source: NWS Daily Summary

Daily Weather History Graph

Daily Weather History Graph

Search for Another Location

Airport or City:

Astronomy

Apr. 06, 2018 Rise Set
Actual Time 6:04 AM AKDT 7:34 PM AKDT
Civil Twilight 5:26 AM AKDT 8:12 PM AKDT
Nautical Twilight 4:40 AM AKDT 9:00 PM AKDT
Astronomical Twilight 3:47 AM AKDT 9:53 PM AKDT
Moon 1:35 AM AKDT (4/6) 9:38 AM AKDT (4/6)
Length of Visible Light 14h 45m
Length of Day
13h 29m
Waning Gibbous, 64% of the Moon is Illuminated
Apr 6
Waning Gibbous
Apr 7
Last Quarter
Apr 15
New
Apr 22
First Quarter
Apr 29
Full

Hourly Weather History & Observations

Time (AKDT) Temp. Windchill Dew Point Humidity Pressure Visibility Wind Dir Wind Speed Gust Speed Precip Events Conditions
12:53 AM 37.9 °F 30.9 °F 34.0 °F 86% 29.67 in 6.0 mi South 10.4 mph 19.6 mph 0.04 in Rain Light Rain
1:53 AM 37.0 °F 31.6 °F 34.0 °F 89% 29.67 in 9.0 mi Variable 6.9 mph - 0.05 in Rain Light Rain
2:53 AM 39.0 °F 36.8 °F 35.1 °F 86% 29.66 in 7.0 mi Variable 3.5 mph - 0.05 in Rain Light Rain
3:53 AM 37.9 °F 34.4 °F 34.0 °F 86% 29.65 in 6.0 mi Variable 4.6 mph - 0.08 in Rain Light Rain
4:53 AM 37.9 °F 33.5 °F 35.1 °F 89% 29.64 in 6.0 mi South 5.8 mph - 0.07 in Rain Light Rain
5:53 AM 41.0 °F - 35.1 °F 79% 29.63 in 9.0 mi Calm Calm - 0.07 in Rain Light Rain
6:12 AM 39.2 °F 34.2 °F 35.6 °F 87% 29.62 in 9.0 mi South 6.9 mph - N/A Rain Light Rain
7:53 AM 42.8 °F 38.6 °F 35.6 °F 76% 29.62 in 10.0 mi SSE 6.9 mph 24.2 mph N/A Rain Light Rain
8:29 AM 41.0 °F 35.8 °F 36.0 °F 82% 29.62 in 8.0 mi South 8.1 mph - 0.02 in Rain Light Rain
8:53 AM 42.8 °F 37.5 °F 35.6 °F 76% 29.63 in 8.0 mi SSE 9.2 mph 24.2 mph N/A Rain Light Rain
9:53 AM 41.0 °F 34.7 °F 37.4 °F 87% 29.63 in 8.0 mi South 10.4 mph - N/A Rain Light Rain
10:53 AM 42.8 °F 39.3 °F 37.4 °F 81% 29.64 in 8.0 mi Variable 5.8 mph - N/A Rain Light Rain
11:53 AM 42.1 °F 38.4 °F 37.0 °F 82% 29.66 in 9.0 mi SSE 5.8 mph - 0.02 in Rain Light Rain
12:53 PM 42.1 °F 36.1 °F 37.0 °F 82% 29.68 in 8.0 mi SSE 10.4 mph - 0.03 in Rain Light Rain
1:53 PM 41.0 °F 36.4 °F 37.0 °F 86% 29.69 in 8.0 mi SE 6.9 mph - 0.03 in Rain Light Rain
2:53 PM 42.1 °F 36.6 °F 37.0 °F 82% 29.68 in 10.0 mi South 9.2 mph - 0.02 in Rain Light Rain
3:53 PM 43.0 °F 38.2 °F 37.0 °F 80% 29.68 in 10.0 mi South 8.1 mph - 0.01 in Rain Light Rain
4:53 PM 45.0 °F 40.6 °F 35.1 °F 68% 29.68 in 10.0 mi SE 8.1 mph - 0.00 in   Overcast
5:53 PM 44.6 °F 40.2 °F 35.6 °F 71% 29.68 in 10.0 mi SSE 8.1 mph - N/A   Overcast
6:53 PM 42.8 °F 38.0 °F 37.4 °F 81% 29.67 in 10.0 mi South 8.1 mph - N/A Rain Light Rain
7:53 PM 44.1 °F 41.5 °F 36.0 °F 73% 29.66 in 10.0 mi South 4.6 mph - 0.00 in   Overcast
8:53 PM 44.1 °F 41.5 °F 34.0 °F 68% 29.65 in 10.0 mi Variable 4.6 mph - N/A   Mostly Cloudy
9:53 PM 45.0 °F 43.5 °F 34.0 °F 65% 29.64 in 10.0 mi Variable 3.5 mph - N/A   Overcast
10:53 PM 43.0 °F - 37.0 °F 80% 29.62 in 10.0 mi Calm Calm - N/A   Overcast
11:53 PM 42.1 °F - 37.9 °F 85% 29.60 in 10.0 mi Calm Calm - 0.01 in   Overcast